Location: Bruch
(44.2051°N, 0.4120°E)
Time: 05:24:30
(UTC+00:00)

Cosmos 1862 - Pass Details

Date: 29 November 2020
Orbit: 537 x 556 km, 82.5° (Epoch: 27 January)

Event Time Altitude Azimuth Distance (km) Brightness Sun altitude
Rises 05:21:20 0° 178° (S) 2,720 7.0 -19.3°
Reaches altitude 10° 05:23:30 10° 175° (S) 1,832 6.2 -18.9°
Maximum altitude 05:27:28 60° 95° (E) 640 3.9 -18.2°
Drops below altitude 10° 05:31:29 10° 16° (NNE) 1,850 6.0 -17.5°
Sets 05:33:41 0° 12° (NNE) 2,749 6.9 -17.1°
